Volver al catálogo

THORAD AGENA D DEB

ActivoPO
NORAD 4971·DEBRIS·🇺🇸 United States

Lanzado Apr 8, 1970 desde Vandenberg Space Force Base

Loading…

Próximos Pases

TLE

Source: Space-Track
1 04971U 70025GR  26223.76874243  .00000542  00000-0  18447-2 0  9998
2 04971  99.9290 141.2523 0342460  66.8169   6.6114 12.84810329634823

Sigue THORAD AGENA D DEB en tiempo real con AllMySat

Download on the App Store